,,,PA_Meas_PMT16A,,PR_Meas_QMR101_102,,RH_Meas_QMH101,,SR_Meas_QMS101,,TA_Meas_QMH101,,GenWind,,GenWind,
date,time,status,PA,status,PR,status,RH,status,SR,status,TA,status,DirAvg,status,SpdAvg,
2010-06-07, 00:00:05,VALID,1000.76,VALID,0,VALID,91.5554,VALID,0,VALID,24.4428,VALID,96,VALID,0.515625,
2010-06-07, 00:01:05,VALID,1000.77,VALID,0,VALID,91.5631,VALID,0,VALID,24.4623,VALID,96,VALID,0.473047,
2010-06-07, 00:02:05,VALID,1000.73,VALID,0,VALID,91.586,VALID,0,VALID,24.4428,VALID,48,VALID,0.679688,
2010-06-07, 00:03:05,VALID,1000.74,VALID,0,VALID,91.6088,VALID,0,VALID,24.4428,VALID,44,VALID,0.882813,
2010-06-07, 00:04:05,VALID,1000.7,VALID,0,VALID,91.647,VALID,0,VALID,24.4019,VALID,42,VALID,0.991016,
2010-06-07, 00:05:05,VALID,1000.68,VALID,0,VALID,91.7614,VALID,0,VALID,24.4428,VALID,37,VALID,1.1332,
2010-06-07, 00:06:05,VALID,1000.69,VALID,0,VALID,91.7538,VALID,0,VALID,24.4019,VALID,27,VALID,0.860937,
2010-06-07, 00:07:05,VALID,1000.67,VALID,0,VALID,91.7691,VALID,0,VALID,24.4233,VALID,26,VALID,0.651172,
2010-06-07, 00:08:05,VALID,1000.7,VALID,0,VALID,91.7691,VALID,0,VALID,24.4233,VALID,26,VALID,0.363672,
2010-06-07, 00:09:05,VALID,1000.67,VALID,0,VALID,91.8454,VALID,0,VALID,24.3842,VALID,26,VALID,0.437109,
2010-06-07, 00:10:05,VALID,1000.69,VALID,0,VALID,91.9369,VALID,0,VALID,24.3629,VALID,26,VALID,0.281641,
2010-06-07, 00:11:05,VALID,1000.72,VALID,0,VALID,92.0666,VALID,0,VALID,24.3842,VALID,26,VALID,0.49375,
2010-06-07, 00:12:05,VALID,1000.73,VALID,0,VALID,92.1506,VALID,0,VALID,24.3842,VALID,37,VALID,0.6,
2010-06-07, 00:13:05,VALID,1000.7,VALID,0,VALID,92.1506,VALID,0,VALID,24.3629,VALID,47,VALID,0.560547,
2010-06-07, 00:14:05,VALID,1000.69,VALID,0,VALID,92.1506,VALID,0,VALID,24.3647,VALID,49,VALID,0.741797,
2010-06-07, 00:15:05,VALID,1000.66,VALID,0,VALID,92.12,VALID,0,VALID,24.3842,VALID,71,VALID,0.814062,
2010-06-07, 00:16:05,VALID,1000.66,VALID,0,VALID,92.1582,VALID,0,VALID,24.3842,VALID,84,VALID,0.823828,
2010-06-07, 00:17:05,VALID,1000.65,VALID,0,VALID,92.1658,VALID,0,VALID,24.4037,VALID,86,VALID,0.406641,
2010-06-07, 00:18:05,VALID,1000.64,VALID,0,VALID,92.1353,VALID,0,VALID,24.4019,VALID,86,VALID,0.276172,
2010-06-07, 00:19:05,VALID,1000.61,VALID,0,VALID,92.1124,VALID,0,VALID,24.4214,VALID,86,VALID,0.0261719,
2010-06-07, 00:20:05,VALID,1000.59,VALID,0,VALID,92.1353,VALID,0,VALID,24.4214,VALID,86,VALID,0.236719,
2010-06-07, 00:21:05,VALID,1000.59,VALID,0,VALID,92.1506,VALID,0,VALID,24.4019,VALID,87,VALID,0.609766,
2010-06-07, 00:22:05,VALID,1000.52,VALID,0,VALID,92.0514,VALID,0,VALID,24.4019,VALID,87,VALID,0.527344,
2010-06-07, 00:23:05,VALID,1000.53,VALID,0,VALID,91.9598,VALID,0,VALID,24.4019,VALID,87,VALID,0.446484,
2010-06-07, 00:24:05,VALID,1000.52,VALID,0,VALID,91.8988,VALID,0,VALID,24.4214,VALID,87,VALID,0.180469,
2010-06-07, 00:25:05,VALID,1000.55,VALID,0,VALID,91.8301,VALID,0,VALID,24.4214,VALID,87,VALID,0.0746094,
2010-06-07, 00:26:05,VALID,1000.59,VALID,0,VALID,91.8454,VALID,0,VALID,24.4214,VALID,87,VALID,0.504297,
2010-06-07, 00:27:05,VALID,1000.57,VALID,0,VALID,91.7538,VALID,0,VALID,24.4409,VALID,87,VALID,0.494141,
2010-06-07, 00:28:05,VALID,1000.6,VALID,0,VALID,91.6165,VALID,0.112286,VALID,24.4391,VALID,87,VALID,0.653906,
2010-06-07, 00:29:05,VALID,1000.61,VALID,0,VALID,91.5631,VALID,0,VALID,24.4604,VALID,87,VALID,0.472656,
2010-06-07, 00:30:05,VALID,1000.61,VALID,0,VALID,91.4868,VALID,0,VALID,24.48,VALID,122,VALID,0.663281,
2010-06-07, 00:31:05,VALID,1000.56,VALID,0,VALID,91.4257,VALID,0.112286,VALID,24.4995,VALID,122,VALID,0.336719,
2010-06-07, 00:32:05,VALID,1000.56,VALID,0,VALID,91.4334,VALID,0,VALID,24.4781,VALID,122,VALID,0.443359,
2010-06-07, 00:33:05,VALID,1000.54,VALID,0,VALID,91.3266,VALID,0,VALID,24.5013,VALID,122,VALID,0.378906,
2010-06-07, 00:34:05,VALID,1000.56,VALID,0,VALID,91.2045,VALID,0,VALID,24.4818,VALID,122,VALID,0.166406,
2010-06-07, 00:35:05,VALID,1000.54,VALID,0,VALID,91.1282,VALID,0,VALID,24.5013,VALID,122,VALID,0,
2010-06-07, 00:36:05,VALID,1000.52,VALID,0,VALID,91.1053,VALID,0,VALID,24.48,VALID,122,VALID,0.0113281,
2010-06-07, 00:37:05,VALID,1000.51,VALID,0,VALID,91.1434,VALID,0,VALID,24.5013,VALID,122,VALID,0.236719,
2010-06-07, 00:38:05,VALID,1000.49,VALID,0,VALID,91.2121,VALID,0,VALID,24.5013,VALID,122,VALID,0.391016,
2010-06-07, 00:39:05,VALID,1000.47,VALID,0,VALID,91.1587,VALID,0,VALID,24.4818,VALID,117,VALID,0.625781,
2010-06-07, 00:40:05,VALID,1000.46,VALID,0,VALID,91.1968,VALID,0,VALID,24.4623,VALID,100,VALID,0.961328,
2010-06-07, 00:41:05,VALID,1000.46,VALID,0,VALID,91.2579,VALID,0,VALID,24.4818,VALID,97,VALID,0.812109,
2010-06-07, 00:42:05,VALID,1000.45,VALID,0,VALID,91.2884,VALID,0,VALID,24.4818,VALID,97,VALID,0.514453,
2010-06-07, 00:43:05,VALID,1000.48,VALID,0,VALID,91.2121,VALID,0,VALID,24.4818,VALID,97,VALID,0.403516,
2010-06-07, 00:44:05,VALID,1000.47,VALID,0,VALID,91.2884,VALID,0,VALID,24.4818,VALID,97,VALID,0.402734,
2010-06-07, 00:45:05,VALID,1000.43,VALID,0,VALID,91.3189,VALID,0,VALID,24.4818,VALID,101,VALID,0.409375,
2010-06-07, 00:46:05,VALID,1000.42,VALID,0,VALID,91.4715,VALID,0,VALID,24.4818,VALID,101,VALID,0.658203,
2010-06-07, 00:47:05,VALID,1000.44,VALID,0,VALID,91.502,VALID,0,VALID,24.5013,VALID,106,VALID,0.417578,
2010-06-07, 00:48:05,VALID,1000.43,VALID,0,VALID,91.4868,VALID,0,VALID,24.5013,VALID,106,VALID,0.0945313,
2010-06-07, 00:49:05,VALID,1000.4,VALID,0,VALID,91.5249,VALID,0,VALID,24.5013,VALID,106,VALID,0.0542969,
2010-06-07, 00:50:05,VALID,1000.41,VALID,0,VALID,91.5707,VALID,0,VALID,24.5209,VALID,20,VALID,0.6125,
2010-06-07, 00:51:05,VALID,1000.38,VALID,0,VALID,91.5402,VALID,0,VALID,24.4995,VALID,360,VALID,0.651953,
2010-06-07, 00:52:05,VALID,1000.45,VALID,0,VALID,91.4181,VALID,0,VALID,24.5209,VALID,360,VALID,0.161328,
2010-06-07, 00:53:05,VALID,1000.45,VALID,0,VALID,91.5249,VALID,0,VALID,24.5013,VALID,360,VALID,0,
2010-06-07, 00:54:05,VALID,1000.43,VALID,0,VALID,91.5783,VALID,0,VALID,24.5013,VALID,360,VALID,0,
2010-06-07, 00:55:05,VALID,1000.4,VALID,0,VALID,91.5783,VALID,0,VALID,24.4818,VALID,360,VALID,0.369922,
2010-06-07, 00:56:05,VALID,1000.42,VALID,0,VALID,91.6012,VALID,0,VALID,24.5032,VALID,360,VALID,0.596484,
2010-06-07, 00:57:05,VALID,1000.44,VALID,0,VALID,91.6012,VALID,0,VALID,24.4818,VALID,360,VALID,0.487891,
2010-06-07, 00:58:05,VALID,1000.43,VALID,0,VALID,91.6623,VALID,0,VALID,24.4818,VALID,360,VALID,0.416016,
2010-06-07, 00:59:05,VALID,1000.42,VALID,0,VALID,91.7157,VALID,0,VALID,24.5013,VALID,360,VALID,0.325391,
2010-06-07, 01:00:05,VALID,1000.43,VALID,0,VALID,91.8072,VALID,0,VALID,24.5013,VALID,360,VALID,0.326953,
2010-06-07, 01:01:05,VALID,1000.41,VALID,0,VALID,91.8225,VALID,0,VALID,24.5013,VALID,360,VALID,0.0316406,
2010-06-07, 01:02:05,VALID,1000.38,VALID,0,VALID,91.7385,VALID,0,VALID,24.5013,VALID,360,VALID,0,
2010-06-07, 01:03:05,VALID,1000.37,VALID,0,VALID,91.6699,VALID,0,VALID,24.4818,VALID,360,VALID,0,
2010-06-07, 01:04:05,VALID,1000.36,VALID,0,VALID,91.7614,VALID,0,VALID,24.5013,VALID,360,VALID,0,
2010-06-07, 01:05:05,VALID,1000.35,VALID,0,VALID,91.7843,VALID,0,VALID,24.5013,VALID,360,VALID,0.14375,
2010-06-07, 01:06:05,VALID,1000.33,VALID,0,VALID,91.7538,VALID,0,VALID,24.5013,VALID,360,VALID,0.438672,
2010-06-07, 01:07:05,VALID,1000.32,VALID,0,VALID,91.8072,VALID,0,VALID,24.4604,VALID,360,VALID,0.40625,
2010-06-07, 01:08:05,VALID,1000.35,VALID,0,VALID,91.8225,VALID,0,VALID,24.4604,VALID,360,VALID,0.215625,
2010-06-07, 01:09:05,VALID,1000.35,VALID,0,VALID,91.8683,VALID,0,VALID,24.4623,VALID,360,VALID,0,
2010-06-07, 01:10:05,VALID,1000.35,VALID,0,VALID,91.8683,VALID,0,VALID,24.4818,VALID,360,VALID,0,
2010-06-07, 01:11:05,VALID,1000.36,VALID,0,VALID,92.0209,VALID,0,VALID,24.4623,VALID,360,VALID,0.343359,
2010-06-07, 01:12:05,VALID,1000.36,VALID,0,VALID,92.0514,VALID,0,VALID,24.4623,VALID,360,VALID,0.597266,
2010-06-07, 01:13:05,VALID,1000.35,VALID,0,VALID,92.12,VALID,0,VALID,24.4428,VALID,80,VALID,0.813281,
2010-06-07, 01:14:05,VALID,1000.31,VALID,0,VALID,92.1887,VALID,0,VALID,24.4623,VALID,80,VALID,0.684375,
2010-06-07, 01:15:05,VALID,1000.26,VALID,0,VALID,92.1277,VALID,0,VALID,24.4428,VALID,65,VALID,0.816797,
2010-06-07, 01:16:05,VALID,1000.22,VALID,0,VALID,92.1124,VALID,0,VALID,24.4428,VALID,54,VALID,0.942187,
2010-06-07, 01:17:05,VALID,1000.16,VALID,0,VALID,92.1277,VALID,0,VALID,24.4428,VALID,54,VALID,0.730078,
2010-06-07, 01:18:05,VALID,1000.18,VALID,0,VALID,92.1124,VALID,0,VALID,24.4428,VALID,54,VALID,0.773438,
2010-06-07, 01:19:05,VALID,1000.16,VALID,0,VALID,92.1277,VALID,0,VALID,24.4623,VALID,54,VALID,0.872266,
2010-06-07, 01:20:05,VALID,1000.18,VALID,0,VALID,92.0895,VALID,0,VALID,24.4428,VALID,55,VALID,0.736719,
2010-06-07, 01:21:05,VALID,1000.18,VALID,0,VALID,92.0437,VALID,0,VALID,24.4428,VALID,75,VALID,0.860156,
2010-06-07, 01:22:05,VALID,1000.14,VALID,0,VALID,92.0514,VALID,0,VALID,24.4233,VALID,96,VALID,1.11797,
2010-06-07, 01:23:05,VALID,1000.15,VALID,0,VALID,92.0437,VALID,0,VALID,24.4428,VALID,102,VALID,1.00937,
2010-06-07, 01:24:04,VALID,1000.18,VALID,0,VALID,91.9827,VALID,0,VALID,24.4428,VALID,94,VALID,0.8875,
2010-06-07, 01:25:04,VALID,1000.18,VALID,0,VALID,91.8988,VALID,0,VALID,24.4428,VALID,87,VALID,0.771484,
2010-06-07, 01:26:04,VALID,1000.17,VALID,0,VALID,91.8225,VALID,0,VALID,24.4428,VALID,78,VALID,0.661328,
2010-06-07, 01:27:04,VALID,1000.19,VALID,0,VALID,91.708,VALID,0,VALID,24.4428,VALID,76,VALID,0.789844,
2010-06-07, 01:28:04,VALID,1000.19,VALID,0,VALID,91.6699,VALID,0,VALID,24.4428,VALID,65,VALID,0.689844,
2010-06-07, 01:29:04,VALID,1000.21,VALID,0,VALID,91.586,VALID,0,VALID,24.4428,VALID,57,VALID,0.767187,
2010-06-07, 01:30:04,VALID,1000.18,VALID,0,VALID,91.5249,VALID,0,VALID,24.4428,VALID,64,VALID,0.644922,
2010-06-07, 01:31:04,VALID,1000.19,VALID,0,VALID,91.5402,VALID,0,VALID,24.4428,VALID,67,VALID,0.916406,
2010-06-07, 01:32:04,VALID,1000.18,VALID,0,VALID,91.5783,VALID,0,VALID,24.4642,VALID,67,VALID,0.896484,
2010-06-07, 01:33:04,VALID,1000.16,VALID,0,VALID,91.5631,VALID,0,VALID,24.4428,VALID,56,VALID,0.858984,
2010-06-07, 01:34:04,VALID,1000.2,VALID,0,VALID,91.4563,VALID,0,VALID,24.4233,VALID,57,VALID,0.727344,
2010-06-07, 01:35:04,VALID,1000.17,VALID,0,VALID,91.3952,VALID,0,VALID,24.3824,VALID,50,VALID,0.708594,
2010-06-07, 01:36:04,VALID,1000.17,VALID,0,VALID,91.3647,VALID,0,VALID,24.4037,VALID,47,VALID,0.779688,
2010-06-07, 01:37:04,VALID,1000.16,VALID,0,VALID,91.3266,VALID,0,VALID,24.3842,VALID,40,VALID,0.645312,
2010-06-07, 01:38:04,VALID,1000.15,VALID,0,VALID,91.2426,VALID,0,VALID,24.3842,VALID,27,VALID,0.487109,
2010-06-07, 01:39:04,VALID,1000.18,VALID,0,VALID,91.1968,VALID,0,VALID,24.3842,VALID,27,VALID,0.400781,
2010-06-07, 01:40:04,VALID,1000.2,VALID,0,VALID,91.1511,VALID,0,VALID,24.3433,VALID,307,VALID,0.537891,
2010-06-07, 01:41:04,VALID,1000.19,VALID,0,VALID,91.2579,VALID,0,VALID,24.3842,VALID,304,VALID,0.397656,
2010-06-07, 01:42:04,VALID,1000.22,VALID,0,VALID,91.3342,VALID,0,VALID,24.3824,VALID,304,VALID,0.247266,
2010-06-07, 01:43:04,VALID,1000.18,VALID,0,VALID,91.3952,VALID,0,VALID,24.4037,VALID,304,VALID,0.00195313,
2010-06-07, 01:44:04,VALID,1000.17,VALID,0,VALID,91.4868,VALID,0,VALID,24.4037,VALID,304,VALID,0,
2010-06-07, 01:45:04,VALID,1000.18,VALID,0,VALID,91.4257,VALID,0,VALID,24.4037,VALID,304,VALID,0.33125,
2010-06-07, 01:46:04,VALID,1000.13,VALID,0,VALID,91.2121,VALID,0,VALID,24.3824,VALID,304,VALID,0.316406,
2010-06-07, 01:47:04,VALID,1000.15,VALID,0,VALID,91.0595,VALID,0,VALID,24.3842,VALID,304,VALID,0.309766,
2010-06-07, 01:48:04,VALID,1000.16,VALID,0,VALID,90.9832,VALID,0,VALID,24.3629,VALID,304,VALID,0.462891,
2010-06-07, 01:49:04,VALID,1000.14,VALID,0,VALID,90.9756,VALID,0,VALID,24.4019,VALID,304,VALID,0.646094,
2010-06-07, 01:50:04,VALID,1000.12,VALID,0,VALID,90.9603,VALID,0,VALID,24.3824,VALID,113,VALID,1.05039,
2010-06-07, 01:51:04,VALID,1000.14,VALID,0,VALID,90.7314,VALID,0,VALID,24.4019,VALID,111,VALID,1.40352,
2010-06-07, 01:52:04,VALID,1000.12,VALID,0,VALID,90.4797,VALID,0,VALID,24.4818,VALID,112,VALID,1.2625,
2010-06-07, 01:53:04,VALID,1000.11,VALID,0,VALID,90.4568,VALID,0,VALID,24.5013,VALID,102,VALID,1.3082,
2010-06-07, 01:54:04,VALID,1000.13,VALID,0,VALID,90.4644,VALID,0,VALID,24.5404,VALID,96,VALID,1.28125,
2010-06-07, 01:55:04,VALID,1000.13,VALID,0,VALID,90.5407,VALID,0,VALID,24.5385,VALID,97,VALID,1.29062,
2010-06-07, 01:56:04,VALID,1000.15,VALID,0,VALID,90.617,VALID,0,VALID,24.5599,VALID,102,VALID,1.2125,
2010-06-07, 01:57:04,VALID,1000.13,VALID,0,VALID,90.6246,VALID,0,VALID,24.5599,VALID,97,VALID,1.03398,
2010-06-07, 01:58:04,VALID,1000.13,VALID,0,VALID,90.6094,VALID,0,VALID,24.5404,VALID,97,VALID,0.751562,
2010-06-07, 01:59:04,VALID,1000.12,VALID,0,VALID,90.5254,VALID,0,VALID,24.5404,VALID,95,VALID,0.503906,
2010-06-07, 02:00:04,VALID,1000.12,VALID,0,VALID,90.411,VALID,0,VALID,24.5209,VALID,80,VALID,0.656641,
2010-06-07, 02:01:04,VALID,1000.1,VALID,0,VALID,90.3805,VALID,0,VALID,24.5013,VALID,79,VALID,0.383594,
2010-06-07, 02:02:04,VALID,1000.15,VALID,0,VALID,90.4034,VALID,0,VALID,24.4818,VALID,78,VALID,0.405469,
2010-06-07, 02:03:04,VALID,1000.15,VALID,0,VALID,90.35,VALID,0,VALID,24.4623,VALID,78,VALID,0.326953,
2010-06-07, 02:04:04,VALID,1000.17,VALID,0,VALID,90.35,VALID,0,VALID,24.4623,VALID,78,VALID,0.367578,
2010-06-07, 02:05:04,VALID,1000.18,VALID,0,VALID,90.2889,VALID,0,VALID,24.4428,VALID,78,VALID,0.399609,
2010-06-07, 02:06:04,VALID,1000.15,VALID,0,VALID,90.3042,VALID,0,VALID,24.4233,VALID,78,VALID,0.401953,
2010-06-07, 02:07:04,VALID,1000.16,VALID,0,VALID,90.2813,VALID,0,VALID,24.4233,VALID,78,VALID,0.178906,
2010-06-07, 02:08:04,VALID,1000.15,VALID,0,VALID,90.4949,VALID,0,VALID,24.4233,VALID,78,VALID,0.212109,
2010-06-07, 02:09:04,VALID,1000.09,VALID,0,VALID,90.6017,VALID,0,VALID,24.4233,VALID,78,VALID,0.323438,
2010-06-07, 02:10:04,VALID,1000.09,VALID,0,VALID,90.5331,VALID,0,VALID,24.4037,VALID,78,VALID,0.306641,
2010-06-07, 02:11:04,VALID,1000.07,VALID,0,VALID,90.4034,VALID,0,VALID,24.3824,VALID,78,VALID,0.119922,
2010-06-07, 02:12:04,VALID,1000.08,VALID,0,VALID,90.4263,VALID,0,VALID,24.3629,VALID,78,VALID,0,
2010-06-07, 02:13:04,VALID,1000.06,VALID,0,VALID,90.4873,VALID,0,VALID,24.3842,VALID,78,VALID,0,
2010-06-07, 02:14:04,VALID,1000.06,VALID,0,VALID,90.617,VALID,0,VALID,24.3842,VALID,78,VALID,0,
2010-06-07, 02:15:04,VALID,1000.08,VALID,0,VALID,90.5026,VALID,0,VALID,24.3647,VALID,78,VALID,0,
2010-06-07, 02:16:04,VALID,1000.08,VALID,0,VALID,90.5712,VALID,0,VALID,24.3647,VALID,78,VALID,0,
2010-06-07, 02:17:04,VALID,1000.09,VALID,0,VALID,90.8383,VALID,0,VALID,24.3647,VALID,78,VALID,0,
2010-06-07, 02:18:04,VALID,1000.06,VALID,0,VALID,90.884,VALID,0,VALID,24.3452,VALID,78,VALID,0,
2010-06-07, 02:19:04,VALID,1000.07,VALID,0,VALID,91.09,VALID,0,VALID,24.3238,VALID,78,VALID,0,
2010-06-07, 02:20:04,VALID,1000.06,VALID,0,VALID,91.235,VALID,0,VALID,24.3257,VALID,78,VALID,0,
2010-06-07, 02:21:04,VALID,1000.04,VALID,0,VALID,91.0824,VALID,0,VALID,24.3062,VALID,78,VALID,0,
2010-06-07, 02:22:04,VALID,1000.08,VALID,0,VALID,90.9985,VALID,0,VALID,24.3062,VALID,78,VALID,0,
2010-06-07, 02:23:04,VALID,1000.09,VALID,0,VALID,90.968,VALID,0,VALID,24.2866,VALID,78,VALID,0,
2010-06-07, 02:24:04,VALID,1000.1,VALID,0,VALID,90.9451,VALID,0,VALID,24.2653,VALID,78,VALID,0,
2010-06-07, 02:25:04,VALID,1000.12,VALID,0,VALID,91.0519,VALID,0,VALID,24.2671,VALID,78,VALID,0.0640625,
2010-06-07, 02:26:04,VALID,1000.14,VALID,0,VALID,91.1129,VALID,0,VALID,24.2653,VALID,78,VALID,0.19375,
2010-06-07, 02:27:04,VALID,1000.17,VALID,0,VALID,91.0748,VALID,0,VALID,24.2866,VALID,78,VALID,0.314844,
2010-06-07, 02:28:04,VALID,1000.17,VALID,0,VALID,91.029,VALID,0,VALID,24.3062,VALID,78,VALID,0.210156,
2010-06-07, 02:29:04,VALID,1000.16,VALID,0,VALID,90.9222,VALID,0,VALID,24.3062,VALID,78,VALID,0,
2010-06-07, 02:30:04,VALID,1000.19,VALID,0,VALID,90.8383,VALID,0,VALID,24.2848,VALID,78,VALID,0,
2010-06-07, 02:31:04,VALID,1000.19,VALID,0,VALID,90.8611,VALID,0,VALID,24.3062,VALID,78,VALID,0.00117188,
2010-06-07, 02:32:04,VALID,1000.17,VALID,0,VALID,91.09,VALID,0,VALID,24.3062,VALID,78,VALID,0.228516,
2010-06-07, 02:33:04,VALID,1000.18,VALID,0,VALID,91.0671,VALID,0,VALID,24.3062,VALID,78,VALID,0.260938,
2010-06-07, 02:34:04,VALID,1000.17,VALID,0,VALID,91.1053,VALID,0,VALID,24.3062,VALID,78,VALID,0.301953,
2010-06-07, 02:35:04,VALID,1000.16,VALID,0,VALID,91.0977,VALID,0,VALID,24.3257,VALID,78,VALID,0.521875,
2010-06-07, 02:36:04,VALID,1000.16,VALID,0,VALID,91.0366,VALID,0,VALID,24.3452,VALID,87,VALID,0.796875,
2010-06-07, 02:37:04,VALID,1000.16,VALID,0,VALID,90.9832,VALID,0,VALID,24.3842,VALID,88,VALID,0.604688,
2010-06-07, 02:38:04,VALID,1000.16,VALID,0,VALID,90.9374,VALID,0,VALID,24.4037,VALID,88,VALID,0.33125,
2010-06-07, 02:39:04,VALID,1000.14,VALID,0,VALID,90.9146,VALID,0,VALID,24.4037,VALID,88,VALID,0.333203,
2010-06-07, 02:40:04,VALID,1000.17,VALID,0,VALID,90.8993,VALID,0,VALID,24.4037,VALID,88,VALID,0.31875,
2010-06-07, 02:41:04,VALID,1000.18,VALID,0,VALID,90.8535,VALID,0,VALID,24.4037,VALID,88,VALID,0.409375,
2010-06-07, 02:42:04,VALID,1000.17,VALID,0,VALID,90.8917,VALID,0,VALID,24.3842,VALID,64,VALID,0.432031,
2010-06-07, 02:43:04,VALID,1000.17,VALID,0,VALID,90.7696,VALID,0,VALID,24.3433,VALID,64,VALID,0.700781,
2010-06-07, 02:44:04,VALID,1000.17,VALID,0,VALID,90.4797,VALID,0,VALID,24.3452,VALID,59,VALID,0.904297,
2010-06-07, 02:45:04,VALID,1000.19,VALID,0,VALID,90.5712,VALID,0,VALID,24.3452,VALID,45,VALID,0.969922,
2010-06-07, 02:46:04,VALID,1000.17,VALID,0,VALID,90.7849,VALID,0,VALID,24.3452,VALID,44,VALID,0.922656,
2010-06-07, 02:47:04,VALID,1000.2,VALID,0,VALID,90.8688,VALID,0,VALID,24.3257,VALID,41,VALID,0.796484,
2010-06-07, 02:48:04,VALID,1000.22,VALID,0,VALID,90.9832,VALID,0,VALID,24.2866,VALID,33,VALID,1.13516,
2010-06-07, 02:49:04,VALID,1000.2,VALID,0,VALID,91.1206,VALID,0,VALID,24.2476,VALID,31,VALID,1.06523,
2010-06-07, 02:50:04,VALID,1000.23,VALID,0,VALID,91.2655,VALID,0,VALID,24.2067,VALID,29,VALID,1.08984,
2010-06-07, 02:51:04,VALID,1000.24,VALID,0,VALID,91.3494,VALID,0,VALID,24.2086,VALID,35,VALID,1.04609,
2010-06-07, 02:52:04,VALID,1000.24,VALID,0,VALID,91.4257,VALID,0,VALID,24.1482,VALID,36,VALID,0.915625,
2010-06-07, 02:53:04,VALID,1000.25,VALID,0,VALID,91.38,VALID,0,VALID,24.15,VALID,36,VALID,1.04375,
2010-06-07, 02:54:04,VALID,1000.26,VALID,0,VALID,91.3189,VALID,0,VALID,24.1305,VALID,39,VALID,0.821875,
2010-06-07, 02:55:04,VALID,1000.24,VALID,0,VALID,91.1968,VALID,0,VALID,24.111,VALID,48,VALID,0.989844,
2010-06-07, 02:56:04,VALID,1000.24,VALID,0,VALID,91.2045,VALID,0,VALID,24.111,VALID,48,VALID,0.797266,
2010-06-07, 02:57:04,VALID,1000.24,VALID,0,VALID,91.174,VALID,0,VALID,24.0915,VALID,48,VALID,0.812891,
2010-06-07, 02:58:04,VALID,1000.2,VALID,0,VALID,91.1587,VALID,0,VALID,24.0915,VALID,47,VALID,0.820703,
2010-06-07, 02:59:04,VALID,1000.2,VALID,0,VALID,91.2274,VALID,0,VALID,24.072,VALID,46,VALID,0.714453,
2010-06-07, 03:00:04,VALID,1000.21,VALID,0,VALID,91.2274,VALID,0,VALID,24.072,VALID,46,VALID,0.732422,
2010-06-07, 03:01:04,VALID,1000.2,VALID,0,VALID,91.3113,VALID,0,VALID,24.072,VALID,46,VALID,0.651172,
2010-06-07, 03:02:04,VALID,1000.17,VALID,0,VALID,91.3494,VALID,0,VALID,24.0525,VALID,46,VALID,0.704687,
2010-06-07, 03:03:04,VALID,1000.16,VALID,0,VALID,91.441,VALID,0,VALID,24.0525,VALID,38,VALID,0.775781,
2010-06-07, 03:04:04,VALID,1000.19,VALID,0,VALID,91.5097,VALID,0,VALID,24.0525,VALID,38,VALID,0.714063,
2010-06-07, 03:05:04,VALID,1000.18,VALID,0,VALID,91.586,VALID,0,VALID,24.0329,VALID,38,VALID,0.683594,
2010-06-07, 03:06:04,VALID,1000.17,VALID,0,VALID,91.6241,VALID,0,VALID,24.0329,VALID,38,VALID,0.485156,
2010-06-07, 03:07:04,VALID,1000.14,VALID,0,VALID,91.708,VALID,0,VALID,24.0116,VALID,38,VALID,0.447656,
2010-06-07, 03:08:04,VALID,1000.17,VALID,0,VALID,91.7385,VALID,0,VALID,24.0116,VALID,38,VALID,0.480859,
2010-06-07, 03:09:04,VALID,1000.14,VALID,0,VALID,91.7843,VALID,0,VALID,24.0329,VALID,38,VALID,0.467969,
2010-06-07, 03:10:04,VALID,1000.16,VALID,0,VALID,91.8225,VALID,0,VALID,24.0329,VALID,38,VALID,0.498047,
2010-06-07, 03:11:04,VALID,1000.15,VALID,0,VALID,91.7996,VALID,0,VALID,24.0329,VALID,38,VALID,0.473047,
2010-06-07, 03:12:04,VALID,1000.16,VALID,0,VALID,91.7614,VALID,0,VALID,24.0329,VALID,38,VALID,0.449219,
2010-06-07, 03:13:04,VALID,1000.19,VALID,0,VALID,91.7004,VALID,0,VALID,24.0329,VALID,38,VALID,0.393359,
2010-06-07, 03:14:04,VALID,1000.16,VALID,0,VALID,91.5554,VALID,0,VALID,24.0329,VALID,40,VALID,0.566406,
2010-06-07, 03:15:04,VALID,1000.17,VALID,0,VALID,91.1358,VALID,0,VALID,24.0329,VALID,100,VALID,0.466016,
2010-06-07, 03:16:04,VALID,1000.2,VALID,0,VALID,90.8077,VALID,0,VALID,24.0525,VALID,100,VALID,0.483594,
2010-06-07, 03:17:04,VALID,1000.24,VALID,0,VALID,90.5712,VALID,0,VALID,24.0915,VALID,99,VALID,0.396484,
2010-06-07, 03:18:04,VALID,1000.23,VALID,0,VALID,90.3042,VALID,0,VALID,24.0897,VALID,99,VALID,0.444922,
2010-06-07, 03:19:04,VALID,1000.24,VALID,0,VALID,89.9303,VALID,0,VALID,24.1092,VALID,97,VALID,0.578906,
2010-06-07, 03:20:04,VALID,1000.27,VALID,0,VALID,89.7243,VALID,0.112286,VALID,24.1482,VALID,97,VALID,0.580469,
2010-06-07, 03:21:04,VALID,1000.3,VALID,0,VALID,89.4039,VALID,0,VALID,24.1659,VALID,97,VALID,0.542188,
2010-06-07, 03:22:04,VALID,1000.3,VALID,0,VALID,89.1979,VALID,0,VALID,24.1854,VALID,97,VALID,0.670703,
2010-06-07, 03:23:04,VALID,1000.31,VALID,0,VALID,89.0758,VALID,0.112286,VALID,24.2049,VALID,91,VALID,0.632813,
2010-06-07, 03:24:04,VALID,1000.32,VALID,0,VALID,88.763,VALID,0.112286,VALID,24.2458,VALID,82,VALID,0.711719,
2010-06-07, 03:25:04,VALID,1000.33,VALID,0,VALID,88.7401,VALID,0,VALID,24.2458,VALID,75,VALID,0.642187,
2010-06-07, 03:26:04,VALID,1000.33,VALID,0,VALID,88.5646,VALID,0,VALID,24.2653,VALID,64,VALID,0.680859,
2010-06-07, 03:27:04,VALID,1000.32,VALID,0,VALID,88.5875,VALID,0,VALID,24.2458,VALID,64,VALID,0.502344,
2010-06-07, 03:28:04,VALID,1000.32,VALID,0,VALID,88.7859,VALID,0.112286,VALID,24.2439,VALID,64,VALID,0.327734,
2010-06-07, 03:29:04,VALID,1000.33,VALID,0,VALID,89.0987,VALID,0.112286,VALID,24.2439,VALID,71,VALID,0.474609,
2010-06-07, 03:30:04,VALID,1000.31,VALID,0,VALID,89.114,VALID,0,VALID,24.2458,VALID,101,VALID,0.502734,
2010-06-07, 03:31:04,VALID,1000.32,VALID,0,VALID,89.1368,VALID,0.112286,VALID,24.2458,VALID,105,VALID,0.444922,
2010-06-07, 03:32:04,VALID,1000.3,VALID,0,VALID,89.3047,VALID,0,VALID,24.2458,VALID,105,VALID,0.551562,
2010-06-07, 03:33:04,VALID,1000.29,VALID,0,VALID,89.381,VALID,0,VALID,24.2067,VALID,125,VALID,0.655469,
2010-06-07, 03:34:04,VALID,1000.28,VALID,0,VALID,89.4649,VALID,0,VALID,24.2067,VALID,136,VALID,0.583594,
2010-06-07, 03:35:04,VALID,1000.28,VALID,0,VALID,89.5031,VALID,0,VALID,24.2281,VALID,135,VALID,1.04961,
2010-06-07, 03:36:04,VALID,1000.32,VALID,0,VALID,89.32,VALID,0,VALID,24.2086,VALID,134,VALID,1.31484,
2010-06-07, 03:37:04,VALID,1000.26,VALID,0,VALID,89.0453,VALID,0,VALID,24.1872,VALID,129,VALID,1.06836,
2010-06-07, 03:38:04,VALID,1000.27,VALID,0,VALID,88.8774,VALID,0,VALID,24.2067,VALID,133,VALID,0.853516,
2010-06-07, 03:39:04,VALID,1000.28,VALID,0,VALID,88.7935,VALID,0,VALID,24.2263,VALID,159,VALID,0.9375,
2010-06-07, 03:40:04,VALID,1000.26,VALID,0,VALID,88.7096,VALID,0,VALID,24.2458,VALID,158,VALID,0.618359,
2010-06-07, 03:41:04,VALID,1000.28,VALID,0,VALID,88.6943,VALID,0,VALID,24.2458,VALID,158,VALID,0.548828,
2010-06-07, 03:42:04,VALID,1000.28,VALID,0,VALID,88.7554,VALID,0,VALID,24.2458,VALID,150,VALID,0.508984,
2010-06-07, 03:43:04,VALID,1000.34,VALID,0,VALID,88.6714,VALID,0,VALID,24.2458,VALID,144,VALID,0.71875,
2010-06-07, 03:44:04,VALID,1000.3,VALID,0,VALID,88.5875,VALID,0,VALID,24.2263,VALID,123,VALID,0.879687,
2010-06-07, 03:45:04,VALID,1000.34,VALID,0,VALID,88.618,VALID,0,VALID,24.2476,VALID,124,VALID,0.880859,
2010-06-07, 03:46:04,VALID,1000.37,VALID,0,VALID,88.7783,VALID,0,VALID,24.2476,VALID,108,VALID,0.684375,
2010-06-07, 03:47:04,VALID,1000.37,VALID,0,VALID,88.8469,VALID,0,VALID,24.2263,VALID,108,VALID,0.484375,